{"data":{"norad_id":64095,"intl_designator":"2025-109A","name":"COSMOS 2588","alt_names":[],"object_type":"PAYLOAD","status":"ACTIVE","operator":null,"country":"CIS","launch_date":"2025-05-23","launch_site_code":"PLMSC","launch_vehicle":null,"mission":null,"orbit_class":"UNKNOWN","rcs_meters":null,"size_class":null,"mass_kg":null,"dimensions":null,"purposes":[],"wikipedia_slug":null,"has_3d_model":false,"image_url":null,"decayed_at":null,"tle_current":{"epoch":"2026-09-21T13:51:57.627648Z","epoch_age_seconds":102442,"freshness":"FRESH","line1":"1 64095U 25109A   26264.57775032  .00005920  00000+0  21561-3 0  9990","line2":"2 64095  72.9738 350.5374 0008674 214.2374 145.8263 15.28479663 74345","mean_motion":15.28479663,"eccentricity":0.0008674,"inclination_deg":72.9738,"raan_deg":350.5374,"arg_perigee_deg":214.2374,"mean_anomaly_deg":145.8263,"bstar":0.00021561,"rev_number":7434,"period_min":94.211263313354,"perigee_km":474.40744555263,"apogee_km":486.30556008132,"semimajor_km":6858.493502817,"source":"CELESTRAK","updated_at":"2026-09-22T09:00:29.535639Z"}}}